Kaharoa — ZM7552 — position and weather

sailwx.info

Track history (hours):
 
Tides and Currents Weather Stations Pressure Air Temp Water Temp Dewpoint Dewpoint Depression Visibility Wind Speed Wind Dir Waves Ship Positions

Oceanographic research ship Kaharoa (New Zealand)

Detailed information on ship capabilities available from University of Delaware's Ocean Information Center.

Last reported at 2017-Jul-19 11:40 UTC. Time now 2017-Jul-20 18:36 UTC.
Position S 36°50' E 174°46'.

Length 28 m; draft 3.5 m.

Type: Fishing. MMSI: 512063000.

Date/timePositionNaut miles runAvg speedWind from/ knotsBaromVisibWave heightAir tempDewpointWater temp
2017-Jul-19 11:40S 36°50' E 174°46'0 1.5
2017-Jul-19 11:29S 36°50' E 174°46'4 7.3
2017-Jul-19 11:00S 36°49' E 174°50'4 8.1
2017-Jul-19 10:30S 36°45' E 174°50'4 9.0
2017-Jul-19 10:00S 36°42' E 174°54'5 9.1
2017-Jul-19 09:29S 36°39' E 174°59'4 9.0
2017-Jul-19 09:00S 36°37' E 175°04'5 8.9
2017-Jul-19 08:29S 36°34' E 175°08'28 2.8
2017-Jul-18 22:16S 36°18' E 175°38'4 0.6
2017-Jul-18 15:14S 36°14' E 175°37'0 1.3
2017-Jul-18 14:57S 36°14' E 175°36'4 0.6
2017-Jul-18 08:04S 36°18' E 175°36'1 4.1
2017-Jul-18 07:53S 36°19' E 175°36'2 0.1
2017-Jul-17 19:21S 36°18' E 175°38'4 0.5
2017-Jul-17 11:05S 36°14' E 175°36'5 5.4
2017-Jul-17 10:09S 36°09' E 175°36'5 0.3
2017-Jul-16 15:21S 36°15' E 175°36'1 2.2
2017-Jul-16 14:56S 36°14' E 175°36'5 0.3
2017-Jul-15 22:56S 36°18' E 175°38'0 0.2
2017-Jul-15 21:04S 36°18' E 175°38'5 0.8
2017-Jul-15 15:10S 36°14' E 175°37'18 1.2
2017-Jul-15 00:18S 36°31' E 175°34'0 0.0
2017-Jul-14 21:48S 36°31' E 175°34'22 3.3
2017-Jul-14 15:12S 36°35' E 175°07'2 8.9
2017-Jul-14 15:00S 36°36' E 175°05'5 9.2
2017-Jul-14 14:30S 36°38' E 175°01'5 9.3
2017-Jul-14 13:57S 36°42' E 174°56'4 9.2
2017-Jul-14 13:30S 36°44' E 174°52'4 8.3
2017-Jul-14 12:59S 36°48' E 174°49'3 6.0
2017-Jul-14 12:29S 36°50' E 174°47'1 0.1
2017-Jul-14 01:12S 36°50' E 174°46'0 1.2
2017-Jul-14 00:58S 36°50' E 174°46'3 6.8
2017-Jul-14 00:30S 36°50' E 174°50'3 6.9
2017-Jul-14 00:00S 36°46' E 174°49'4 8.2
2017-Jul-13 23:30S 36°44' E 174°52'5 8.3
2017-Jul-13 22:54S 36°41' E 174°57'3 8.4
2017-Jul-13 22:30S 36°39' E 175°01'4 8.3
2017-Jul-13 22:00S 36°36' E 175°05'  
Track history (hours):
 
Tides and Currents Weather Stations Pressure Air Temp Water Temp Dewpoint Dewpoint Depression Visibility Wind Speed Wind Dir Waves Ship Positions

Oceanographic research ship Kaharoa (New Zealand)

Detailed information on ship capabilities available from University of Delaware's Ocean Information Center.

Last reported at 2017-Jul-19 11:40 UTC. Time now 2017-Jul-20 18:36 UTC.
Position S 36°50' E 174°46'.

Length 28 m; draft 3.5 m.

Type: Fishing. MMSI: 512063000.

Date/timePositionNaut miles runAvg speedWind from/ knotsBaromVisibWave heightAir tempDewpointWater temp
2017-Jul-19 11:40S 36°50' E 174°46'0 1.5
2017-Jul-19 11:29S 36°50' E 174°46'4 7.3
2017-Jul-19 11:00S 36°49' E 174°50'4 8.1
2017-Jul-19 10:30S 36°45' E 174°50'4 9.0
2017-Jul-19 10:00S 36°42' E 174°54'5 9.1
2017-Jul-19 09:29S 36°39' E 174°59'4 9.0
2017-Jul-19 09:00S 36°37' E 175°04'5 8.9
2017-Jul-19 08:29S 36°34' E 175°08'28 2.8
2017-Jul-18 22:16S 36°18' E 175°38'4 0.6
2017-Jul-18 15:14S 36°14' E 175°37'0 1.3
2017-Jul-18 14:57S 36°14' E 175°36'4 0.6
2017-Jul-18 08:04S 36°18' E 175°36'1 4.1
2017-Jul-18 07:53S 36°19' E 175°36'2 0.1
2017-Jul-17 19:21S 36°18' E 175°38'4 0.5
2017-Jul-17 11:05S 36°14' E 175°36'5 5.4
2017-Jul-17 10:09S 36°09' E 175°36'5 0.3
2017-Jul-16 15:21S 36°15' E 175°36'1 2.2
2017-Jul-16 14:56S 36°14' E 175°36'5 0.3
2017-Jul-15 22:56S 36°18' E 175°38'0 0.2
2017-Jul-15 21:04S 36°18' E 175°38'5 0.8
2017-Jul-15 15:10S 36°14' E 175°37'18 1.2
2017-Jul-15 00:18S 36°31' E 175°34'0 0.0
2017-Jul-14 21:48S 36°31' E 175°34'22 3.3
2017-Jul-14 15:12S 36°35' E 175°07'2 8.9
2017-Jul-14 15:00S 36°36' E 175°05'5 9.2
2017-Jul-14 14:30S 36°38' E 175°01'5 9.3
2017-Jul-14 13:57S 36°42' E 174°56'4 9.2
2017-Jul-14 13:30S 36°44' E 174°52'4 8.3
2017-Jul-14 12:59S 36°48' E 174°49'3 6.0
2017-Jul-14 12:29S 36°50' E 174°47'1 0.1
2017-Jul-14 01:12S 36°50' E 174°46'0 1.2
2017-Jul-14 00:58S 36°50' E 174°46'3 6.8
2017-Jul-14 00:30S 36°50' E 174°50'3 6.9
2017-Jul-14 00:00S 36°46' E 174°49'4 8.2
2017-Jul-13 23:30S 36°44' E 174°52'5 8.3
2017-Jul-13 22:54S 36°41' E 174°57'3 8.4
2017-Jul-13 22:30S 36°39' E 175°01'4 8.3
2017-Jul-13 22:00S 36°36' E 175°05'  

Dump ship's entire track history